| time (UTC) | temp F | wind direction | speed MPH | gust MPH | rain 1hr in | rain 24hr in | rain mn in | humidity % | barometer mb |
| 20260509103040 | 42 | 247 | 0.0 | 0.0 | 0.00 | 0.00 | 0.00 | 96 | 1107.8 |
| 20260509101648 | 42 | 247 | 0.0 | 0.0 | 0.00 | 0.00 | 0.00 | 96 | 1107.4 |
| 20260509100032 | 42 | 247 | 0.0 | 0.0 | 0.00 | 0.00 | 0.00 | 96 | 1107.2 |
| 20260509094538 | 41 | 247 | 0.0 | 0.0 | 0.00 | 0.00 | 0.00 | 96 | 1107.1 |
| 20260509093030 | 41 | 247 | 0.0 | 0.0 | 0.00 | 0.00 | 0.00 | 95 | 1107.0 |
| 20260509091533 | 40 | 247 | 0.0 | 0.0 | 0.00 | 0.00 | 0.00 | 95 | 1107.0 |
| 20260509090039 | 40 | 247 | 0.0 | 0.0 | 0.00 | 0.00 | 0.00 | 95 | 1107.0 |
| 20260509083032 | 40 | 247 | 0.0 | 0.0 | 0.00 | 0.00 | 0.00 | 95 | 1106.8 |
| 20260509081642 | 40 | 247 | 0.0 | 0.0 | 0.00 | 0.00 | 0.00 | 95 | 1107.0 |
| 20260509080051 | 40 | 247 | 0.0 | 1.0 | 0.00 | 0.00 | 0.00 | 95 | 1107.1 |
| 20260509074539 | 40 | 247 | 0.0 | 1.0 | 0.00 | 0.00 | 0.00 | 94 | 1107.0 |
| 20260509073031 | 40 | 247 | 0.0 | 1.0 | 0.00 | 0.00 | 0.00 | 94 | 1107.0 |
| 20260509071614 | 40 | 247 | 0.0 | 1.0 | 0.00 | 0.00 | 0.00 | 94 | 1107.0 |
| 20260509070106 | 40 | 247 | 0.0 | 1.0 | 0.00 | 0.00 | 0.00 | 94 | 1107.2 |
| 20260509064541 | 40 | 247 | 0.0 | 1.0 | 0.00 | 0.00 | 0.00 | 94 | 1107.2 |
| 20260509063039 | 40 | 247 | 0.0 | 1.0 | 0.00 | 0.00 | 0.00 | 93 | 1107.3 |
| 20260509061550 | 40 | 247 | 0.0 | 2.0 | 0.00 | 0.00 | 0.00 | 93 | 1107.6 |
| 20260509060048 | 40 | 247 | 0.0 | 1.0 | 0.00 | 0.00 | 0.00 | 92 | 1107.6 |
| 20260509054540 | 41 | 247 | 0.0 | 1.0 | 0.00 | 0.00 | 0.00 | 92 | 1108.0 |
| 20260509053031 | 41 | 247 | 0.0 | 0.0 | 0.00 | 0.00 | 0.00 | 92 | 1108.2 |
| 20260509051529 | 41 | 247 | 0.0 | 0.0 | 0.00 | 0.00 | 0.00 | 91 | 1108.3 |
| 20260509050030 | 41 | 247 | 0.0 | 0.0 | 0.00 | 0.00 | 0.00 | 91 | 1108.6 |
| 20260509044615 | 42 | 247 | 0.0 | 0.0 | 0.00 | 0.00 | 0.00 | 90 | 1108.7 |
| 20260509043040 | 42 | 247 | 0.0 | 0.0 | 0.00 | 0.00 | 0.00 | 90 | 1108.8 |
| 20260509040038 | 43 | 247 | 0.0 | 0.0 | 0.00 | 0.00 | 0.00 | 89 | 1108.8 |
| 20260509034538 | 43 | 247 | 0.0 | 0.0 | 0.00 | 0.00 | 0.00 | 88 | 1108.9 |
| 20260509033115 | 44 | 247 | 0.0 | 0.0 | 0.00 | 0.00 | 0.00 | 87 | 1109.1 |
| 20260509031531 | 44 | 247 | 0.0 | 0.0 | 0.00 | 0.00 | 0.00 | 86 | 1109.1 |
| 20260509030111 | 45 | 247 | 0.0 | 0.0 | 0.00 | 0.00 | 0.00 | 85 | 1109.2 |
| 20260509024538 | 46 | 247 | 0.0 | 0.0 | 0.00 | 0.00 | 0.00 | 84 | 1109.3 |
| 20260509023039 | 46 | 247 | 0.0 | 0.0 | 0.00 | 0.00 | 0.00 | 83 | 1109.2 |
| 20260509021531 | 47 | 247 | 0.0 | 0.0 | 0.00 | 0.00 | 0.00 | 81 | 1109.2 |
| 20260509020114 | 48 | 247 | 0.0 | 0.0 | 0.00 | 0.00 | 0.00 | 80 | 1109.1 |
| 20260509014539 | 49 | 247 | 0.0 | 0.0 | 0.00 | 0.00 | 0.00 | 78 | 1109.0 |
| 20260509013031 | 50 | 247 | 0.0 | 0.0 | 0.00 | 0.00 | 0.00 | 74 | 1108.9 |
| 20260509011541 | 52 | 247 | 0.0 | 0.0 | 0.00 | 0.00 | 0.00 | 71 | 1109.0 |
| 20260509003031 | 61 | 247 | 0.0 | 0.0 | 0.00 | 0.00 | 0.00 | 50 | 1108.7 |
| 20260509000052 | 70 | 270 | 0.0 | 1.0 | 0.00 | 0.00 | 0.00 | 42 | 1108.4 |
| 20260508234606 | 0 | 0 | 0.0 | 0.0 | 0.00 | 0.00 | 0.00 | 100 |